Weather History for Pampa / Mesa Vista, TX

Change the Weather History Date:

Thursday, November 10, 2011

  Actual Average (KBGD) Record (KBGD)
Temperature  
Mean Temperature 47 °F 51 °F  
Max Temperature 64 °F 64 °F 85 °F (2014)
Min Temperature 30 °F 38 °F 11 °F (1950)
Degree Days  
Heating Degree Days 18 14  
Month to date heating degree days 125  
Since 1 July heating degree days 346  
Cooling Degree Days 0 0  
Month to date cooling degree days 0  
Year to date cooling degree days 1835  
Moisture  
Dew Point 27 °F    
Average Humidity 55    
Maximum Humidity 87    
Minimum Humidity 19    
Precipitation  
Precipitation 0.00 in 0.03 in 0.44 in (2004)
Month to date precipitation 0.34  
Year to date precipitation 20.45  
Snow  
Snow 0.00 in - 2.40 in (1979)
Month to date snowfall  
Since 1 July snowfall  
Since 1 September snowfall  
Snow Depth -    
Sea Level Pressure  
Sea Level Pressure 30.33 in    
Wind  
Wind Speed 11 mph (SW)    
Max Wind Speed 21 mph    
Max Gust Speed 29 mph    
Visibility 10 miles    
Events      
T = Trace of Precipitation, MM = Missing Value Source: NWS Daily Summary

Daily Weather History Graph

Daily Weather History Graph

Search for Another Location

Airport:

Trip Planner

Search our weather history database for the weather conditions in past years. The results will help you decide how hot, cold, wet, or windy it might be!

Date:

Astronomy

Nov. 10, 2011 Rise Set
Actual Time 7:15 AM CST 5:40 PM CST
Civil Twilight 6:48 AM CST 6:07 PM CST
Nautical Twilight 6:17 AM CST 6:38 PM CST
Astronomical Twilight 5:47 AM CST 7:08 PM CST
Moon 5:31 PM CST (11/10) 7:07 AM CST (11/10)
Length of Visible Light 11h 19m
Length of Day
10h 25m
Full, 100% of the Moon is Illuminated
Nov 10
Full
Nov 10
Full
Nov 18
Last Quarter
Nov 25
New
Dec 2
First Quarter

Hourly Weather History & Observations

Time (CST) Temp. Windchill Dew Point Humidity Pressure Visibility Wind Dir Wind Speed Gust Speed Precip Events Conditions
12:15 AM 32.0 °F 24.2 °F 28.4 °F 87% 30.45 in 10.0 mi SW 9.2 mph - N/A   Clear
12:35 AM 32.0 °F 24.2 °F 28.4 °F 87% 30.45 in 10.0 mi SW 9.2 mph - N/A   Clear
12:55 AM 32.0 °F 24.2 °F 28.4 °F 87% 30.45 in 10.0 mi SW 9.2 mph - N/A   Clear
1:15 AM 32.0 °F 24.8 °F 28.4 °F 87% 30.45 in 10.0 mi WSW 8.1 mph - N/A   Clear
1:35 AM 32.0 °F 24.2 °F 28.4 °F 87% 30.45 in 10.0 mi SW 9.2 mph - N/A   Clear
1:55 AM 32.0 °F 23.6 °F 28.4 °F 87% 30.45 in 10.0 mi WSW 10.4 mph - N/A   Clear
2:35 AM 32.0 °F 24.2 °F 28.4 °F 87% 30.44 in 10.0 mi WSW 9.2 mph - N/A   Clear
2:55 AM 32.0 °F 24.8 °F 28.4 °F 87% 30.44 in 10.0 mi WSW 8.1 mph - N/A   Clear
3:15 AM 32.0 °F 27.5 °F 28.4 °F 87% 30.44 in 10.0 mi WSW 4.6 mph - N/A   Clear
3:35 AM 32.0 °F 25.6 °F 28.4 °F 87% 30.44 in 10.0 mi WSW 6.9 mph - N/A   Clear
3:55 AM 32.0 °F 24.2 °F 28.4 °F 87% 30.43 in 10.0 mi SW 9.2 mph - N/A   Clear
4:15 AM 32.0 °F 24.2 °F 28.4 °F 87% 30.43 in 10.0 mi SW 9.2 mph - N/A   Clear
4:35 AM 32.0 °F 24.2 °F 28.4 °F 87% 30.43 in 10.0 mi SW 9.2 mph - N/A   Clear
5:15 AM 32.0 °F 23.0 °F 28.4 °F 87% 30.42 in 10.0 mi SW 11.5 mph - N/A   Clear
5:35 AM 32.0 °F 24.2 °F 28.4 °F 87% 30.43 in 10.0 mi SW 9.2 mph - N/A   Clear
6:15 AM 32.0 °F 24.2 °F 26.6 °F 80% 30.42 in 10.0 mi SW 9.2 mph - N/A   Clear
6:55 AM 32.0 °F 24.2 °F 26.6 °F 80% 30.42 in 10.0 mi WSW 9.2 mph - N/A   Clear
7:15 AM 32.0 °F 26.4 °F 26.6 °F 80% 30.42 in 10.0 mi SW 5.8 mph - N/A   Clear
7:55 AM 30.2 °F - 26.6 °F 86% 30.42 in 10.0 mi Calm Calm - N/A   Clear
8:15 AM 35.6 °F 29.9 °F 30.2 °F 81% 30.42 in 10.0 mi SW 6.9 mph - N/A   Clear
8:35 AM 35.6 °F 27.5 °F 30.2 °F 81% 30.42 in 10.0 mi WSW 11.5 mph - N/A   Clear
8:55 AM 37.4 °F 28.5 °F 30.2 °F 75% 30.42 in 10.0 mi WSW 15.0 mph 19.6 mph N/A   Clear
9:15 AM 39.2 °F 30.5 °F 30.2 °F 70% 30.41 in 10.0 mi WSW 16.1 mph - N/A   Clear
9:35 AM 41.0 °F 33.9 °F 30.2 °F 65% 30.41 in 10.0 mi WSW 12.7 mph - N/A   Clear
9:55 AM 44.6 °F 37.8 °F 30.2 °F 57% 30.40 in 10.0 mi WSW 15.0 mph 24.2 mph N/A   Clear
10:15 AM 46.4 °F 39.2 °F 30.2 °F 53% 30.39 in 10.0 mi WSW 18.4 mph - N/A   Clear
10:35 AM 48.2 °F - 30.2 °F 50% 30.39 in 10.0 mi WSW 17.3 mph - N/A   Clear
10:55 AM 50.0 °F - 28.4 °F 43% 30.38 in 10.0 mi WSW 18.4 mph - N/A   Clear
11:15 AM 53.6 °F - 28.4 °F 38% 30.38 in 10.0 mi WSW 18.4 mph - N/A   Clear
11:35 AM 53.6 °F - 28.4 °F 38% 30.37 in 10.0 mi WSW 17.3 mph 23.0 mph N/A   Clear
11:55 AM 55.4 °F - 28.4 °F 36% 30.36 in 10.0 mi WSW 19.6 mph 23.0 mph N/A   Clear
12:15 PM 55.4 °F - 28.4 °F 36% 30.35 in 10.0 mi WSW 18.4 mph 24.2 mph N/A   Clear
12:35 PM 59.0 °F - 28.4 °F 31% 30.33 in 10.0 mi WSW 18.4 mph 21.9 mph N/A   Clear
12:55 PM 59.0 °F - 28.4 °F 31% 30.31 in 10.0 mi WSW 19.6 mph 25.3 mph N/A   Clear
1:15 PM 60.8 °F - 28.4 °F 29% 30.30 in 10.0 mi WSW 13.8 mph 28.8 mph N/A   Clear
1:35 PM 60.8 °F - 26.6 °F 27% 30.28 in 10.0 mi WSW 20.7 mph - N/A   Clear
1:55 PM 62.6 °F - 26.6 °F 26% 30.27 in 10.0 mi West 15.0 mph 23.0 mph N/A   Clear
2:15 PM 62.6 °F - 23.0 °F 22% 30.26 in 10.0 mi WSW 15.0 mph 21.9 mph N/A   Clear
2:35 PM 62.6 °F - 23.0 °F 22% 30.25 in 10.0 mi WSW 12.7 mph 18.4 mph N/A   Clear
2:55 PM 62.6 °F - 23.0 °F 22% 30.24 in 10.0 mi WSW 10.4 mph - N/A   Clear
3:15 PM 62.6 °F - 23.0 °F 22% 30.23 in 10.0 mi WSW 13.8 mph - N/A   Clear
3:35 PM 62.6 °F - 21.2 °F 20% 30.22 in 10.0 mi WSW 10.4 mph 20.7 mph N/A   Clear
3:55 PM 64.4 °F - 21.2 °F 19% 30.21 in 10.0 mi SW 11.5 mph - N/A   Clear
4:15 PM 62.6 °F - 21.2 °F 20% 30.20 in 10.0 mi WSW 10.4 mph - N/A   Clear
4:35 PM 62.6 °F - 21.2 °F 20% 30.20 in 10.0 mi WSW 9.2 mph - N/A   Clear
4:55 PM 62.6 °F - 21.2 °F 20% 30.20 in 10.0 mi WSW 6.9 mph - N/A   Clear
5:15 PM 60.8 °F - 21.2 °F 22% 30.19 in 10.0 mi WSW 6.9 mph - N/A   Clear
5:35 PM 55.4 °F - 21.2 °F 26% 30.18 in 10.0 mi WSW 4.6 mph - N/A   Clear
5:55 PM 53.6 °F - 23.0 °F 30% 30.17 in 10.0 mi SW 6.9 mph - N/A   Clear
6:15 PM 50.0 °F - 23.0 °F 35% 30.17 in 10.0 mi SW 5.8 mph - N/A   Clear
6:35 PM 44.6 °F 40.2 °F 26.6 °F 49% 30.17 in 10.0 mi SSW 8.1 mph - N/A   Clear
6:55 PM 42.8 °F 36.6 °F 26.6 °F 53% 30.17 in 10.0 mi South 11.5 mph - N/A   Clear
7:15 PM 44.6 °F 39.2 °F 28.4 °F 53% 30.16 in 10.0 mi South 10.4 mph - N/A   Clear
7:35 PM 46.4 °F 41.1 °F 26.6 °F 46% 30.16 in 10.0 mi SSW 11.5 mph - N/A   Clear
7:55 PM 46.4 °F 41.5 °F 26.6 °F 46% 30.15 in 10.0 mi SSW 10.4 mph - N/A   Clear
8:15 PM 44.6 °F 39.2 °F 26.6 °F 49% 30.14 in 10.0 mi SW 10.4 mph - N/A   Clear
8:35 PM 42.8 °F 37.0 °F 26.6 °F 53% 30.14 in 10.0 mi SSW 10.4 mph - N/A   Clear
8:55 PM 41.0 °F 35.8 °F 26.6 °F 57% 30.14 in 10.0 mi SW 8.1 mph - N/A   Clear
9:15 PM 41.0 °F 35.8 °F 26.6 °F 57% 30.15 in 10.0 mi SW 8.1 mph - N/A   Clear
9:35 PM 37.4 °F 30.3 °F 26.6 °F 65% 30.15 in 10.0 mi SSW 10.4 mph - N/A   Clear
9:55 PM 37.4 °F 30.3 °F 26.6 °F 65% 30.14 in 10.0 mi SSW 10.4 mph - N/A   Clear
10:15 PM 41.0 °F 33.9 °F 26.6 °F 57% 30.13 in 10.0 mi SW 12.7 mph - N/A   Clear
10:35 PM 42.8 °F 36.2 °F 26.6 °F 53% 30.12 in 10.0 mi SW 12.7 mph - N/A   Clear
10:55 PM 42.8 °F 35.8 °F 24.8 °F 49% 30.12 in 10.0 mi SW 13.8 mph - N/A   Clear
11:15 PM 42.8 °F 35.8 °F 24.8 °F 49% 30.11 in 10.0 mi SW 13.8 mph - N/A   Clear
11:35 PM 41.0 °F 33.5 °F 24.8 °F 53% 30.10 in 10.0 mi SW 13.8 mph - N/A   Clear
11:55 PM 41.0 °F 33.9 °F 23.0 °F 49% 30.09 in 10.0 mi SW 12.7 mph - N/A   Clear